sat.trackr.live / text

‹ back to catalog

STARLINK-32792

NORAD 62504 · 2025-003T

PAYLOAD ACTIVE UNKNOWN

§ Identity

Operator
Country
US
Launch date
2025-01-06
Launch site
AFETR
Launch vehicle
Mass (kg)
RCS (m²)

Purposes: comms

External: N2YO · Heavens-Above · Gunter

§ Orbital elements

Epoch: 2026-09-21T16:47:17.478240Z

Period
94.27 min
Inclination
43.0024°
Eccentricity
0.0001227
Mean motion
15.27587968 rev/d
Perigee alt
482.2 km
Apogee alt
483.9 km
Semi-major
6,861.2 km
B*
2.3481e-4
RAAN
261.5800°
Arg perigee
272.4950°
Mean anomaly
87.5761°
Rev number
9,653

§ Raw data

STARLINK-327921 62504U 25003T   26264.69950785  .00006206  00000+0  23481-3 0  99902 62504  43.0024 261.5800 0001227 272.4950  87.5761 15.27587968 96530

JSON: /api/v1/satellites/62504 · /tle

For live sub-satellite position, see the globe view (requires WebGL).

§ Visibility from observer

Set your observer location to see the next 7 days of passes ≥ 10°. The values pass through the URL so the page stays shareable.

No JS? Fill the form by hand. The geolocation button needs JavaScript.